Back to catalog

STARLINK-36661

AliveCommunicationsVLEO
NORAD 67831·PAYLOAD·🇺🇸 United States

Launched Feb 16, 2026 from Vandenberg Space Force Base

Loading…

Next Passes (next 24 hours)

TLE

FreshSource: CelesTrak SupGP

Epoch: Sep 14, 2026, 15:59 UTC

1 67831C 26033L   26257.66645833 -.00011795  00000+0 -42721-3 0  2572
2 67831  43.0000 280.2411 0001546 272.7880 342.4609 15.27584386    10

Track STARLINK-36661 in real time with AllMySat

Download on the App Store